Edinburg, TX

8:27 AM CDT on April 30, 2017 (GMT -0500)
Edinburg

Weather History for KEBG - March, 2014

Change the Weather History Date:

Saturday, March 1, 2014

  Actual Average (KMFE) Record (KMFE)
Temperature  
Mean Temperature 72 °F -  
Max Temperature 80 °F 74 °F 94 °F (1953)
Min Temperature 65 °F 55 °F 39 °F (1962)
Cooling Degree Days 8    
Growing Degree Days 22 (Base 50)    
Moisture  
Dew Point 63 °F    
Average Humidity 75    
Maximum Humidity 90    
Minimum Humidity 61    
Precipitation  
Precipitation 0.00 in - - ()
Sea Level Pressure  
Sea Level Pressure 29.93 in    
Wind  
Wind Speed 11 mph (SSE)    
Max Wind Speed 20 mph    
Max Gust Speed 28 mph    
Visibility 10 miles    
Events      
Averages and records for this station are not official NWS values.
T = Trace of Precipitation, MM = Missing Value Source: NWS Daily Summary

Daily Weather History Graph

Daily Weather History Graph

Search for Another Location

Airport or City:

Trip Planner

Search our weather history database for the weather conditions in past years. The results will help you decide how hot, cold, wet, or windy it might be!

Date:

Astronomy

Mar. 01, 2014 Rise Set
Actual Time 6:56 AM CST 6:33 PM CST
Civil Twilight 6:32 AM CST 6:57 PM CST
Nautical Twilight 6:06 AM CST 7:24 PM CST
Astronomical Twilight 5:39 AM CST 7:50 PM CST
Moon 6:56 AM CST (3/1) 7:14 PM CST (3/1)
Length of Visible Light 12h 24m
Length of Day
11h 37m
New Moon, 0% of the Moon is Illuminated
Mar 1
New Moon
Mar 8
First Quarter
Mar 16
Full
Mar 23
Last Quarter
Mar 30
New

Hourly Weather History & Observations

Time (CST) Temp. Heat Index Dew Point Humidity Pressure Visibility Wind Dir Wind Speed Gust Speed Precip Events Conditions
12:15 AM 68.0 °F - 62.6 °F 83% 29.91 in 10.0 mi South 8.1 mph - N/A   Clear
12:35 AM - - - N/A% 29.91 in 10.0 mi South 9.2 mph - N/A   Clear
12:36 AM 68.0 °F - 62.6 °F 83% 29.91 in 10.0 mi SSE 9.2 mph - N/A   Clear
1:15 AM 68.5 °F - 62.8 °F 82% 29.91 in 10.0 mi SSE 11.5 mph - N/A   Clear
1:30 AM 68.5 °F - 56.7 °F 66% 29.91 in 10.0 mi SSE 11.5 mph - N/A   Clear
1:55 AM 69.8 °F - 62.6 °F 78% 29.90 in 10.0 mi SSE 10.4 mph - N/A   Clear
2:10 AM 68.2 °F - 63.0 °F 83% 29.90 in 10.0 mi South 12.7 mph - N/A   Clear
2:15 AM 68.0 °F - 62.6 °F 83% 29.90 in 10.0 mi SSE 11.5 mph - N/A   Clear
2:35 AM 68.0 °F - 56.7 °F 67% 29.90 in 10.0 mi South 12.7 mph 17.3 mph N/A   Clear
2:55 AM 67.8 °F - 62.8 °F 84% 29.89 in 10.0 mi South 10.4 mph - N/A   Clear
3:10 AM 67.5 °F - 56.5 °F 68% 29.89 in 10.0 mi South 10.4 mph - N/A   Clear
3:37 AM 66.2 °F - 62.6 °F 88% 29.89 in 10.0 mi South 9.2 mph - N/A   Clear
3:50 AM 67.1 °F - 56.5 °F 69% 29.89 in 10.0 mi South 9.2 mph - N/A   Clear
4:35 AM 66.7 °F - 56.5 °F 70% 29.90 in 10.0 mi South 9.2 mph - N/A   Clear
4:55 AM 66.6 °F - 62.8 °F 88% 29.90 in 10.0 mi SSE 9.2 mph - N/A   Clear
5:15 AM 66.4 °F - 56.5 °F 70% 29.90 in 10.0 mi SSE 8.1 mph - N/A   Clear
5:35 AM 66.2 °F - 62.6 °F 88% 29.90 in 10.0 mi SSE 5.8 mph - N/A   Clear
5:55 AM 66.2 °F - 56.5 °F 71% 29.91 in 10.0 mi SSE 6.9 mph - N/A   Clear
6:35 AM 65.5 °F - 62.2 °F 89% 29.92 in 10.0 mi SSE 5.8 mph - N/A   Clear
6:50 AM 65.7 °F - 56.5 °F 72% 29.92 in 7.0 mi SSE 6.9 mph - N/A   Clear
7:35 AM 66.6 °F - 63.5 °F 90% 29.94 in 7.0 mi SSE 5.8 mph - N/A   Clear
8:17 AM 69.8 °F - 64.4 °F 83% 29.95 in 10.0 mi SSE 10.4 mph - N/A   Clear
8:35 AM 70.5 °F - 65.7 °F 85% 29.96 in 10.0 mi SSE 11.5 mph - N/A   Clear
9:15 AM 73.4 °F - 66.2 °F 78% 29.97 in 10.0 mi South 18.4 mph 21.9 mph N/A   Scattered Clouds
9:30 AM 73.8 °F - 66.4 °F 78% 29.98 in 10.0 mi SSE 16.1 mph 23.0 mph N/A   Mostly Cloudy
9:35 AM 73.4 °F - 66.2 °F 78% 29.98 in 10.0 mi South 11.5 mph - N/A   Mostly Cloudy
9:55 AM 75.2 °F - 66.2 °F 73% 29.98 in 10.0 mi South 17.3 mph 24.2 mph N/A   Overcast
10:15 AM 77.0 °F - 66.2 °F 69% 29.99 in 10.0 mi South 12.7 mph 27.6 mph N/A   Overcast
10:35 AM 78.8 °F - 66.2 °F 65% 29.99 in 10.0 mi South 16.1 mph 20.7 mph N/A   Overcast
10:55 AM 78.8 °F - 68.0 °F 69% 29.99 in 10.0 mi SSE 15.0 mph 18.4 mph N/A   Overcast
11:15 AM 78.8 °F - 66.2 °F 65% 29.98 in 10.0 mi SSE 16.1 mph 24.2 mph N/A   Overcast
11:50 AM - - - N/A% 29.97 in 10.0 mi SSE 16.1 mph 23.0 mph N/A   Overcast
1:35 PM - - - N/A% 29.94 in 10.0 mi SSE 16.1 mph 21.9 mph N/A   Overcast
1:37 PM 80.6 °F 82.7 °F 66.2 °F 61% 29.94 in 10.0 mi SSE 17.3 mph 21.9 mph N/A   Overcast
2:40 PM - - - N/A% 29.91 in 10.0 mi SSE 17.3 mph 25.3 mph N/A   Overcast
4:37 PM 80.6 °F 82.7 °F 66.2 °F 61% 29.89 in 10.0 mi SE 19.6 mph - N/A   Overcast
5:20 PM - - - N/A% 29.89 in 10.0 mi SSE 12.7 mph 23.0 mph N/A   Overcast
5:55 PM 78.8 °F - 66.2 °F 65% 29.90 in 10.0 mi SSE 10.4 mph - N/A   Overcast
6:15 PM 78.8 °F - 66.2 °F 65% 29.90 in 10.0 mi SSE 16.1 mph 21.9 mph N/A   Overcast
6:35 PM 78.8 °F - 66.2 °F 65% 29.90 in 10.0 mi SSE 16.1 mph 23.0 mph N/A   Overcast
6:55 PM 77.0 °F - 68.0 °F 74% 29.91 in 10.0 mi SSE 15.0 mph 19.6 mph N/A   Overcast
7:55 PM 77.0 °F - 68.0 °F 74% 29.93 in 10.0 mi SE 11.5 mph - N/A   Overcast
9:20 PM - - - N/A% 29.95 in 10.0 mi SSE 11.5 mph 18.4 mph N/A   Overcast
10:37 PM 75.2 °F - 69.8 °F 83% 29.95 in 10.0 mi SE 11.5 mph - N/A   Overcast
10:55 PM - - - N/A% 29.95 in 10.0 mi SE 11.5 mph 16.1 mph N/A   Overcast